Location: Malvern Link
(52.1333°N, 2.3000°W)
Time: 05:41:06
(UTC+00:00)

Cosmos 2151 Rocket - Pass Details

Date: 18 September 2020
Orbit: 618 x 642 km, 82.5° (Epoch: 21 October)

Event Time Altitude Azimuth Distance (km) Brightness Sun altitude
Rises 20:22:49 0° 197° (SSW) 2,905 6.9 -19.4°
Reaches altitude 10° 20:25:03 10° 200° (SSW) 2,007 6.1 -19.7°
Maximum altitude 20:29:28 65° 283° (WNW) 699 4.0 -20.2°
Drops below altitude 10° 20:33:58 10° 6° (N) 2,037 6.5 -20.8°
Sets 20:36:15 0° 9° (N) 2,954 7.4 -21.1°
